Location: Altavilla Irpina
(41.0000°N, 14.7833°E)
Time: 01:28:15
(UTC+00:00)

Okean O Rocket - Pass Details

Date: 19 May 2025
Orbit: 614 x 636 km, 98.0° (Epoch: 23 June)

Event Time Altitude Azimuth Distance (km) Brightness Sun altitude
Exits shadow 19:57:33 14° 189° (S) 1,755 3.5 -16.1°
Maximum altitude 20:01:07 47° 261° (W) 830 2.4 -16.6°
Drops below altitude 10° 20:05:20 10° 335° (NNW) 2,002 5.3 -17.1°
Sets 20:07:36 0° 341° (NNW) 2,910 6.3 -17.4°
